Location: Caltech
(34.1382°N, 118.1253°W)
Time: 21:42:34
(UTC-07:00)

Cosmos 2219 Rocket - Visible Passes

Search period start: 18 April 2014 00:00
Search period end: 28 April 2014 00:00
Orbit: 827 x 848 km, 71.0° (Epoch: 17 April)

Date Brightness Start Highest point End Pass type
(mag) Time Alt. Az. Time Alt. Az. Time Alt. Az.
18 Apr 2.7 20:25:21 10° NNW 20:30:54 60° WSW 20:36:24 10° S visible
19 Apr 2.6 20:09:06 10° NNW 20:14:41 66° WSW 20:20:13 10° S visible
20 Apr 2.5 19:52:50 10° NNW 19:58:28 72° WSW 20:04:01 10° SSE visible
25 Apr 5.3 20:19:06 10° W 20:20:27 11° W 20:21:48 10° WSW visible
26 Apr 5.2 20:02:12 10° WNW 20:04:17 12° W 20:06:21 10° WSW visible
